SWA4526 TIST-KMCO

Flight info

Callsign SWA4526
Flight time 2h 52m
Altitude 36000
Route PALCO7 PALCO RTE6 IDAHO A555 ZQA DCT OCTAL MUNGI1
Aircraft B737/M-SADE2E3GIJ4RWZ/LB1D1

Departure

Time 2026-05-05 15:33
Airport Cyril E. King Airport (TIST)

Arrival

Time 2026-05-05 18:26
Airport Orlando International Airport (KMCO)
Time Latitude Longitude Altitude Speed Heading
2026-05-05 15:01 18.33489 -64.97317 31 ft 0 kts 46°
2026-05-05 15:07 18.33488 -64.97317 31 ft 0 kts 46°
2026-05-05 15:25 18.33475 -64.97331 31 ft 4 kts 41°
2026-05-05 15:25 18.33454 -64.97346 31 ft 4 kts 15°
2026-05-05 15:25 18.33434 -64.97344 29 ft 1 kts 313°
2026-05-05 15:29 18.33446 -64.97358 29 ft 5 kts 312°
2026-05-05 15:29 18.33490 -64.97393 31 ft 11 kts 344°
2026-05-05 15:29 18.33579 -64.97397 31 ft 14 kts 358°
2026-05-05 15:29 18.33612 -64.97470 29 ft 14 kts 268°
2026-05-05 15:30 18.33609 -64.97597 31 ft 21 kts 268°
2026-05-05 15:30 18.33601 -64.97777 31 ft 27 kts 268°
2026-05-05 15:30 18.33593 -64.97974 31 ft 26 kts 267°
2026-05-05 15:30 18.33585 -64.98159 31 ft 24 kts 268°
2026-05-05 15:31 18.33583 -64.98294 31 ft 10 kts 283°
2026-05-05 15:31 18.33631 -64.98328 31 ft 8 kts 354°
2026-05-05 15:31 18.33683 -64.98321 28 ft 7 kts 38°
2026-05-05 15:31 18.33690 -64.98301 28 ft 0 kts 85°
2026-05-05 15:32 18.33696 -64.98162 29 ft 52 kts 88°
2026-05-05 15:33 18.33721 -64.97555 38 ft 113 kts 87°
2026-05-05 15:33 18.33761 -64.96568 216 ft 145 kts 90°
2026-05-05 15:33 18.33745 -64.95523 916 ft 142 kts 107°
2026-05-05 15:33 18.33227 -64.94658 1544 ft 150 kts 131°
2026-05-05 15:34 18.32300 -64.93941 1767 ft 182 kts 156°
2026-05-05 15:34 18.30949 -64.93797 1972 ft 214 kts 188°
2026-05-05 15:34 18.29572 -64.94598 2250 ft 246 kts 223°
2026-05-05 15:34 18.28521 -64.96130 2615 ft 267 kts 232°
2026-05-05 15:35 18.27482 -64.97755 3462 ft 267 kts 232°
2026-05-05 15:35 18.26436 -64.99408 4206 ft 275 kts 236°
2026-05-05 15:35 18.25832 -65.01334 4978 ft 284 kts 263°
2026-05-05 15:35 18.25968 -65.03416 5958 ft 288 kts 277°
2026-05-05 15:36 18.26298 -65.05504 6983 ft 290 kts 278°
2026-05-05 15:36 18.26651 -65.07594 8015 ft 291 kts 278°
2026-05-05 15:36 18.27000 -65.09688 9051 ft 292 kts 278°
2026-05-05 15:36 18.27346 -65.11808 10039 ft 295 kts 278°
2026-05-05 15:37 18.27691 -65.13972 10653 ft 310 kts 278°
2026-05-05 15:37 18.28057 -65.16285 10848 ft 339 kts 278°
2026-05-05 15:37 18.28454 -65.18817 11123 ft 360 kts 278°
2026-05-05 15:37 18.28864 -65.21448 11766 ft 368 kts 278°
2026-05-05 15:38 18.29284 -65.24124 12545 ft 372 kts 279°
2026-05-05 15:38 18.29786 -65.26802 13322 ft 375 kts 281°
2026-05-05 15:38 18.30351 -65.29501 14058 ft 380 kts 282°
2026-05-05 15:38 18.30937 -65.32229 14747 ft 382 kts 282°
2026-05-05 15:39 18.31519 -65.34954 15532 ft 381 kts 282°
2026-05-05 15:39 18.32093 -65.37679 16313 ft 381 kts 282°
2026-05-05 15:39 18.32661 -65.40407 17058 ft 382 kts 283°
2026-05-05 15:39 18.33226 -65.43141 17717 ft 385 kts 283°
2026-05-05 15:40 18.33798 -65.45912 18356 ft 388 kts 283°
2026-05-05 15:40 18.34371 -65.48700 18903 ft 392 kts 283°
2026-05-05 15:40 18.34949 -65.51515 19444 ft 394 kts 282°
2026-05-05 15:40 18.35531 -65.54352 19950 ft 398 kts 282°
2026-05-05 15:41 18.36116 -65.57210 20440 ft 401 kts 282°
2026-05-05 15:41 18.36507 -65.59120 20767 ft 404 kts 282°
2026-05-05 15:41 18.37294 -65.62968 21375 ft 408 kts 282°
2026-05-05 15:41 18.37892 -65.65899 21843 ft 411 kts 282°
2026-05-05 15:42 18.38494 -65.68856 22272 ft 414 kts 281°
2026-05-05 15:42 18.39099 -65.71831 22694 ft 418 kts 281°
2026-05-05 15:42 18.39707 -65.74830 23083 ft 421 kts 281°
2026-05-05 15:42 18.40121 -65.76872 23346 ft 423 kts 281°
2026-05-05 15:43 18.40739 -65.79916 23718 ft 426 kts 281°
2026-05-05 15:43 18.41360 -65.82977 24037 ft 429 kts 281°
2026-05-05 15:43 18.41976 -65.86013 24369 ft 431 kts 281°
2026-05-05 15:43 18.42610 -65.89146 24677 ft 433 kts 281°
2026-05-05 15:44 18.43231 -65.92217 24976 ft 436 kts 281°
2026-05-05 15:44 18.43863 -65.95343 25287 ft 438 kts 281°
2026-05-05 15:44 18.44589 -65.98461 25584 ft 440 kts 287°
2026-05-05 15:44 18.45727 -66.01468 25894 ft 444 kts 296°
2026-05-05 15:45 18.47169 -66.04342 26205 ft 445 kts 297°
2026-05-05 15:45 18.48653 -66.07214 26507 ft 447 kts 297°
2026-05-05 15:45 18.50147 -66.10101 26776 ft 450 kts 297°
2026-05-05 15:45 18.51639 -66.13007 27048 ft 451 kts 297°
2026-05-05 15:46 18.53123 -66.15927 27312 ft 453 kts 297°
2026-05-05 15:46 18.54607 -66.18868 27571 ft 455 kts 297°
2026-05-05 15:46 18.56091 -66.21820 27830 ft 457 kts 297°
2026-05-05 15:46 18.57581 -66.24792 28094 ft 459 kts 297°
2026-05-05 15:47 18.59072 -66.27768 28350 ft 460 kts 297°
2026-05-05 15:47 18.60572 -66.30761 28609 ft 462 kts 297°
2026-05-05 15:47 18.62054 -66.33717 28890 ft 463 kts 297°
2026-05-05 15:47 18.63562 -66.36726 29143 ft 464 kts 297°
2026-05-05 15:48 18.65070 -66.39737 29374 ft 466 kts 296°
2026-05-05 15:48 18.66572 -66.42772 29610 ft 467 kts 296°
2026-05-05 15:48 18.68065 -66.45813 29971 ft 466 kts 296°
2026-05-05 15:48 18.69549 -66.48843 30365 ft 464 kts 296°
2026-05-05 15:49 18.71027 -66.51859 30750 ft 461 kts 296°
2026-05-05 15:49 18.72491 -66.54844 31151 ft 458 kts 296°
2026-05-05 15:49 18.73953 -66.57825 31547 ft 456 kts 296°
2026-05-05 15:49 18.75411 -66.60795 31959 ft 454 kts 296°
2026-05-05 15:50 18.76863 -66.63749 32389 ft 452 kts 296°
2026-05-05 15:50 18.78316 -66.66682 32828 ft 449 kts 296°
2026-05-05 15:50 18.79760 -66.69589 33284 ft 447 kts 296°
2026-05-05 15:50 18.81181 -66.72449 33717 ft 445 kts 296°
2026-05-05 15:51 18.82631 -66.75366 34164 ft 442 kts 296°
2026-05-05 15:51 18.84034 -66.78195 34543 ft 440 kts 296°
2026-05-05 15:51 18.85449 -66.81052 34892 ft 438 kts 295°
2026-05-05 15:51 18.86858 -66.83900 35211 ft 437 kts 295°
2026-05-05 15:52 18.88264 -66.86744 35547 ft 436 kts 295°
2026-05-05 15:52 18.89663 -66.89576 35917 ft 433 kts 295°
2026-05-05 15:52 18.91058 -66.92398 36094 ft 436 kts 295°
2026-05-05 15:53 18.93873 -66.98098 36093 ft 438 kts 295°
2026-05-05 15:53 18.96667 -67.03763 36084 ft 432 kts 295°
2026-05-05 15:54 18.99429 -67.09388 36107 ft 430 kts 295°
2026-05-05 15:54 19.02174 -67.14987 36102 ft 429 kts 295°
2026-05-05 15:55 19.04921 -67.20594 36104 ft 429 kts 295°
2026-05-05 15:55 19.07662 -67.26192 36100 ft 429 kts 295°
2026-05-05 15:56 19.10380 -67.31751 36104 ft 429 kts 295°
2026-05-05 15:56 19.13118 -67.37355 36105 ft 429 kts 295°
2026-05-05 15:57 19.15860 -67.42972 36105 ft 430 kts 295°
2026-05-05 15:57 19.18607 -67.48606 36104 ft 431 kts 295°
2026-05-05 15:58 19.21354 -67.54244 36102 ft 432 kts 295°
2026-05-05 15:58 19.24104 -67.59893 36106 ft 432 kts 295°
2026-05-05 15:59 19.26967 -67.65499 36100 ft 435 kts 300°
2026-05-05 15:59 19.30331 -67.70817 36103 ft 436 kts 301°
2026-05-05 16:00 19.33779 -67.76099 36105 ft 435 kts 301°
2026-05-05 16:00 19.37171 -67.81353 36111 ft 435 kts 301°
2026-05-05 16:01 19.40564 -67.86661 36099 ft 434 kts 301°
2026-05-05 16:01 19.43940 -67.91965 36110 ft 434 kts 301°
2026-05-05 16:02 19.47309 -67.97265 36110 ft 433 kts 301°
2026-05-05 16:02 19.50672 -68.02557 36101 ft 433 kts 301°
2026-05-05 16:03 19.54028 -68.07844 36102 ft 432 kts 301°
2026-05-05 16:03 19.57382 -68.13134 36101 ft 432 kts 300°
2026-05-05 16:04 19.60741 -68.18434 36101 ft 432 kts 300°
2026-05-05 16:04 19.64095 -68.23730 36097 ft 432 kts 300°
2026-05-05 16:05 19.67423 -68.28992 36098 ft 432 kts 300°
2026-05-05 16:05 19.70793 -68.34325 36096 ft 432 kts 300°
2026-05-05 16:06 19.74120 -68.39594 36098 ft 432 kts 300°
2026-05-05 16:06 19.77489 -68.44934 36100 ft 433 kts 300°
2026-05-05 16:07 19.80817 -68.50215 36100 ft 433 kts 300°
2026-05-05 16:07 19.84169 -68.55536 36097 ft 433 kts 300°
2026-05-05 16:08 19.87513 -68.60851 36100 ft 433 kts 300°
2026-05-05 16:08 19.90858 -68.66173 36101 ft 433 kts 300°
2026-05-05 16:09 19.94209 -68.71506 36098 ft 434 kts 300°
2026-05-05 16:09 19.97555 -68.76841 36097 ft 434 kts 300°
2026-05-05 16:10 20.00898 -68.82171 36098 ft 433 kts 300°
2026-05-05 16:10 20.04269 -68.87488 36092 ft 433 kts 300°
2026-05-05 16:11 20.07631 -68.92763 36091 ft 433 kts 300°
2026-05-05 16:12 20.14359 -69.03356 36094 ft 432 kts 300°
2026-05-05 16:13 20.22745 -69.16604 36095 ft 432 kts 300°
2026-05-05 16:13 20.26097 -69.21905 36095 ft 431 kts 300°
2026-05-05 16:14 20.32786 -69.32495 36093 ft 430 kts 300°
2026-05-05 16:15 20.39457 -69.43080 36089 ft 430 kts 300°
2026-05-05 16:16 20.46127 -69.53684 36094 ft 431 kts 300°
2026-05-05 16:17 20.51110 -69.61619 36090 ft 431 kts 300°
2026-05-05 16:18 20.56103 -69.69587 36088 ft 430 kts 300°
2026-05-05 16:19 20.61075 -69.77557 36086 ft 429 kts 300°
2026-05-05 16:19 20.66003 -69.85538 36087 ft 429 kts 300°
2026-05-05 16:20 20.72557 -69.96162 36087 ft 428 kts 300°
2026-05-05 16:22 20.80746 -70.09457 36085 ft 428 kts 300°
2026-05-05 16:23 20.87265 -70.20068 36084 ft 428 kts 300°
2026-05-05 16:23 20.92169 -70.28058 36081 ft 428 kts 300°
2026-05-05 16:24 20.95438 -70.33387 36079 ft 428 kts 300°
2026-05-05 16:25 21.00340 -70.41390 36087 ft 429 kts 300°
2026-05-05 16:25 21.05241 -70.49404 36081 ft 429 kts 300°
2026-05-05 16:26 21.11776 -70.60108 36084 ft 429 kts 300°
2026-05-05 16:27 21.15018 -70.65425 36080 ft 429 kts 300°
2026-05-05 16:27 21.18286 -70.70794 36082 ft 430 kts 300°
2026-05-05 16:28 21.21553 -70.76166 36082 ft 430 kts 300°
2026-05-05 16:28 21.24818 -70.81543 36077 ft 430 kts 300°
2026-05-05 16:29 21.28079 -70.86916 36081 ft 430 kts 300°
2026-05-05 16:29 21.31334 -70.92286 36075 ft 430 kts 300°
2026-05-05 16:30 21.34588 -70.97658 36077 ft 429 kts 300°
2026-05-05 16:30 21.37837 -71.03030 36073 ft 429 kts 300°
2026-05-05 16:31 21.41083 -71.08402 36084 ft 429 kts 300°
2026-05-05 16:31 21.44325 -71.13787 36084 ft 428 kts 299°
2026-05-05 16:32 21.47330 -71.19300 36087 ft 428 kts 297°
2026-05-05 16:32 21.49749 -71.23931 36083 ft 428 kts 296°
2026-05-05 16:33 21.52676 -71.29507 36082 ft 429 kts 297°
2026-05-05 16:33 21.55625 -71.35080 36080 ft 429 kts 297°
2026-05-05 16:34 21.58580 -71.40653 36083 ft 429 kts 297°
2026-05-05 16:34 21.61535 -71.46231 36082 ft 429 kts 297°
2026-05-05 16:35 21.64487 -71.51812 36075 ft 429 kts 297°
2026-05-05 16:35 21.67438 -71.57395 36074 ft 429 kts 297°
2026-05-05 16:36 21.70380 -71.62968 36072 ft 428 kts 297°
2026-05-05 16:36 21.73318 -71.68533 36078 ft 427 kts 297°
2026-05-05 16:37 21.76231 -71.74053 36080 ft 426 kts 296°
2026-05-05 16:37 21.79151 -71.79590 36074 ft 425 kts 296°
2026-05-05 16:38 21.82060 -71.85118 36078 ft 424 kts 296°
2026-05-05 16:38 21.84962 -71.90641 36077 ft 423 kts 296°
2026-05-05 16:39 21.87861 -71.96160 36073 ft 423 kts 296°
2026-05-05 16:39 21.90752 -72.01668 36067 ft 422 kts 296°
2026-05-05 16:40 21.93640 -72.07178 36071 ft 422 kts 296°
2026-05-05 16:40 21.96525 -72.12688 36068 ft 422 kts 296°
2026-05-05 16:41 21.99395 -72.18193 36062 ft 421 kts 296°
2026-05-05 16:41 22.02258 -72.23698 36075 ft 421 kts 296°
2026-05-05 16:42 22.05140 -72.29182 36073 ft 420 kts 296°
2026-05-05 16:42 22.08030 -72.34663 36065 ft 420 kts 296°
2026-05-05 16:43 22.10912 -72.40140 36074 ft 420 kts 296°
2026-05-05 16:43 22.13782 -72.45626 36075 ft 419 kts 295°
2026-05-05 16:44 22.16459 -72.51205 36084 ft 418 kts 294°
2026-05-05 16:44 22.19077 -72.56771 36069 ft 418 kts 294°
2026-05-05 16:45 22.21736 -72.62363 36068 ft 419 kts 294°
2026-05-05 16:45 22.24409 -72.67943 36071 ft 419 kts 295°
2026-05-05 16:46 22.27299 -72.73416 36077 ft 420 kts 297°
2026-05-05 16:46 22.30252 -72.78856 36075 ft 420 kts 297°
2026-05-05 16:47 22.33180 -72.84324 36079 ft 420 kts 296°
2026-05-05 16:47 22.36083 -72.89790 36071 ft 419 kts 296°
2026-05-05 16:48 22.38982 -72.95256 36070 ft 419 kts 296°
2026-05-05 16:48 22.41880 -73.00723 36078 ft 419 kts 296°
2026-05-05 16:49 22.44773 -73.06195 36067 ft 419 kts 296°
2026-05-05 16:49 22.47660 -73.11665 36073 ft 418 kts 296°
2026-05-05 16:50 22.50519 -73.17089 36074 ft 418 kts 296°
2026-05-05 16:50 22.53391 -73.22545 36075 ft 417 kts 296°
2026-05-05 16:51 22.56258 -73.27991 36073 ft 416 kts 296°
2026-05-05 16:51 22.59121 -73.33437 36072 ft 416 kts 296°
2026-05-05 16:52 22.61974 -73.38874 36066 ft 415 kts 296°
2026-05-05 16:52 22.64825 -73.44307 36072 ft 414 kts 295°
2026-05-05 16:53 22.67650 -73.49740 36066 ft 413 kts 295°
2026-05-05 16:53 22.70477 -73.55146 36095 ft 412 kts 295°
2026-05-05 16:54 22.73267 -73.60538 36069 ft 415 kts 296°
2026-05-05 16:54 22.76141 -73.65927 36091 ft 412 kts 295°
2026-05-05 16:55 22.78942 -73.71337 36064 ft 411 kts 294°
2026-05-05 16:55 22.81715 -73.76748 36064 ft 410 kts 296°
2026-05-05 16:56 22.84572 -73.82098 36079 ft 411 kts 296°
2026-05-05 16:56 22.87391 -73.87498 36076 ft 411 kts 294°
2026-05-05 16:57 22.90172 -73.92924 36078 ft 412 kts 295°
2026-05-05 16:57 22.92994 -73.98333 36066 ft 412 kts 295°
2026-05-05 16:58 22.95813 -74.03741 36076 ft 411 kts 295°
2026-05-05 16:58 22.98591 -74.09133 36071 ft 412 kts 294°
2026-05-05 16:59 23.01396 -74.14560 36076 ft 412 kts 294°
2026-05-05 16:59 23.04201 -74.19986 36068 ft 412 kts 294°
2026-05-05 17:00 23.07001 -74.25410 36070 ft 412 kts 294°
2026-05-05 17:00 23.09777 -74.30840 36071 ft 410 kts 294°
2026-05-05 17:01 23.12578 -74.36239 36069 ft 410 kts 294°
2026-05-05 17:01 23.15354 -74.41639 36066 ft 409 kts 294°
2026-05-05 17:02 23.18099 -74.47038 36073 ft 407 kts 294°
2026-05-05 17:02 23.20834 -74.52428 36073 ft 407 kts 294°
2026-05-05 17:03 23.23563 -74.57812 36068 ft 406 kts 294°
2026-05-05 17:03 23.26299 -74.63200 36069 ft 407 kts 294°
2026-05-05 17:04 23.29006 -74.68553 36067 ft 406 kts 294°
2026-05-05 17:04 23.31696 -74.73944 36072 ft 405 kts 294°
2026-05-05 17:05 23.34420 -74.79308 36068 ft 405 kts 294°
2026-05-05 17:05 23.37139 -74.84671 36071 ft 404 kts 293°
2026-05-05 17:06 23.39833 -74.90052 36072 ft 405 kts 294°
2026-05-05 17:06 23.42558 -74.95427 36070 ft 406 kts 294°
2026-05-05 17:07 23.45276 -75.00820 36069 ft 407 kts 294°
2026-05-05 17:07 23.47994 -75.06229 36065 ft 407 kts 294°
2026-05-05 17:08 23.50713 -75.11647 36062 ft 408 kts 294°
2026-05-05 17:08 23.53414 -75.17037 36063 ft 408 kts 294°
2026-05-05 17:09 23.56130 -75.22459 36062 ft 408 kts 294°
2026-05-05 17:09 23.58989 -75.27811 36061 ft 411 kts 300°
2026-05-05 17:10 23.62384 -75.32834 36062 ft 411 kts 301°
2026-05-05 17:10 23.65800 -75.37834 36062 ft 411 kts 301°
2026-05-05 17:11 23.69191 -75.42838 36063 ft 410 kts 301°
2026-05-05 17:11 23.72565 -75.47846 36064 ft 409 kts 301°
2026-05-05 17:12 23.75927 -75.52845 36064 ft 408 kts 301°
2026-05-05 17:12 23.79261 -75.57810 36065 ft 408 kts 301°
2026-05-05 17:13 23.82610 -75.62800 36064 ft 407 kts 301°
2026-05-05 17:13 23.85955 -75.67792 36061 ft 407 kts 301°
2026-05-05 17:14 23.89295 -75.72779 36057 ft 406 kts 301°
2026-05-05 17:14 23.92628 -75.77760 36065 ft 406 kts 301°
2026-05-05 17:15 23.95956 -75.82738 36066 ft 405 kts 301°
2026-05-05 17:15 23.99277 -75.87713 36061 ft 404 kts 301°
2026-05-05 17:16 24.02589 -75.92679 36061 ft 404 kts 301°
2026-05-05 17:16 24.05902 -75.97646 36061 ft 404 kts 301°
2026-05-05 17:17 24.09227 -76.02610 36060 ft 404 kts 301°
2026-05-05 17:17 24.12527 -76.07541 36062 ft 404 kts 301°
2026-05-05 17:18 24.15845 -76.12506 36064 ft 404 kts 301°
2026-05-05 17:18 24.19155 -76.17471 36060 ft 404 kts 302°
2026-05-05 17:19 24.22464 -76.22437 36054 ft 404 kts 302°
2026-05-05 17:19 24.25775 -76.27407 36058 ft 404 kts 302°
2026-05-05 17:20 24.29080 -76.32387 36055 ft 404 kts 302°
2026-05-05 17:20 24.32377 -76.37375 36049 ft 403 kts 302°
2026-05-05 17:21 24.35668 -76.42357 36050 ft 404 kts 302°
2026-05-05 17:22 24.40586 -76.49812 36049 ft 404 kts 302°
2026-05-05 17:22 24.43879 -76.54811 36049 ft 404 kts 302°
2026-05-05 17:23 24.47172 -76.59812 36052 ft 404 kts 302°
2026-05-05 17:23 24.50461 -76.64812 36049 ft 404 kts 302°
2026-05-05 17:24 24.53746 -76.69812 36050 ft 403 kts 302°
2026-05-05 17:24 24.56476 -76.73971 36052 ft 403 kts 302°
2026-05-05 17:25 24.60285 -76.79783 36045 ft 403 kts 302°
2026-05-05 17:25 24.63029 -76.83971 36049 ft 403 kts 302°
2026-05-05 17:26 24.66293 -76.88966 36050 ft 402 kts 302°
2026-05-05 17:26 24.69553 -76.93968 36047 ft 402 kts 302°
2026-05-05 17:27 24.72808 -76.98965 36050 ft 402 kts 302°
2026-05-05 17:27 24.76048 -77.03929 36048 ft 401 kts 302°
2026-05-05 17:28 24.79310 -77.08902 36049 ft 401 kts 303°
2026-05-05 17:28 24.82571 -77.13878 36042 ft 400 kts 303°
2026-05-05 17:29 24.85818 -77.18843 36052 ft 399 kts 303°
2026-05-05 17:29 24.89059 -77.23806 36059 ft 399 kts 303°
2026-05-05 17:30 24.92298 -77.28773 36061 ft 399 kts 303°
2026-05-05 17:30 24.95534 -77.33734 36065 ft 398 kts 303°
2026-05-05 17:31 24.98737 -77.38658 36081 ft 398 kts 303°
2026-05-05 17:31 25.01963 -77.43635 36070 ft 398 kts 301°
2026-05-05 17:32 25.04517 -77.49010 36079 ft 395 kts 294°
2026-05-05 17:32 25.06804 -77.54523 36072 ft 395 kts 294°
2026-05-05 17:33 25.09098 -77.60035 36065 ft 396 kts 294°
2026-05-05 17:33 25.11403 -77.65548 36062 ft 396 kts 294°
2026-05-05 17:34 25.13707 -77.71052 36056 ft 395 kts 294°
2026-05-05 17:34 25.16010 -77.76556 36056 ft 395 kts 294°
2026-05-05 17:35 25.18292 -77.82022 36045 ft 394 kts 295°
2026-05-05 17:35 25.20585 -77.87516 36046 ft 394 kts 295°
2026-05-05 17:36 25.22873 -77.93007 36045 ft 393 kts 295°
2026-05-05 17:36 25.25159 -77.98500 36043 ft 393 kts 295°
2026-05-05 17:37 25.27441 -78.03991 36043 ft 393 kts 295°
2026-05-05 17:37 25.29724 -78.09486 36043 ft 393 kts 295°
2026-05-05 17:38 25.32000 -78.14977 36049 ft 393 kts 295°
2026-05-05 17:38 25.34274 -78.20471 36043 ft 393 kts 295°
2026-05-05 17:39 25.36549 -78.25973 36042 ft 393 kts 295°
2026-05-05 17:39 25.38821 -78.31475 36039 ft 393 kts 295°
2026-05-05 17:40 25.41080 -78.36948 36042 ft 394 kts 295°
2026-05-05 17:40 25.43351 -78.42463 36044 ft 394 kts 295°
2026-05-05 17:41 25.45623 -78.47985 36046 ft 394 kts 295°
2026-05-05 17:41 25.47891 -78.53507 36046 ft 394 kts 295°
2026-05-05 17:42 25.50158 -78.59030 36043 ft 394 kts 295°
2026-05-05 17:42 25.52420 -78.64553 36042 ft 394 kts 295°
2026-05-05 17:43 25.54678 -78.70074 36024 ft 393 kts 298°
2026-05-05 17:43 25.56925 -78.75569 36041 ft 391 kts 298°
2026-05-05 17:44 25.59165 -78.81051 36044 ft 390 kts 298°
2026-05-05 17:44 25.61392 -78.86514 36046 ft 389 kts 298°
2026-05-05 17:45 25.63598 -78.91929 36046 ft 388 kts 298°
2026-05-05 17:45 25.65817 -78.97389 36045 ft 388 kts 298°
2026-05-05 17:46 25.68034 -79.02845 36045 ft 388 kts 298°
2026-05-05 17:46 25.70246 -79.08298 36050 ft 387 kts 298°
2026-05-05 17:47 25.72453 -79.13747 36050 ft 387 kts 298°
2026-05-05 17:47 25.74658 -79.19198 36049 ft 387 kts 298°
2026-05-05 17:48 25.76863 -79.24657 36054 ft 387 kts 298°
2026-05-05 17:48 25.79068 -79.30119 36046 ft 388 kts 298°
2026-05-05 17:49 25.81263 -79.35566 36055 ft 389 kts 298°
2026-05-05 17:49 25.83474 -79.41057 36051 ft 390 kts 298°
2026-05-05 17:50 25.85687 -79.46566 36054 ft 391 kts 298°
2026-05-05 17:50 25.87898 -79.52072 36054 ft 391 kts 298°
2026-05-05 17:51 25.90111 -79.57589 36055 ft 391 kts 297°
2026-05-05 17:51 25.92323 -79.63116 36053 ft 392 kts 297°
2026-05-05 17:52 25.94537 -79.68651 36058 ft 392 kts 297°
2026-05-05 17:52 25.96748 -79.74186 36052 ft 392 kts 297°
2026-05-05 17:53 25.98955 -79.79721 36055 ft 392 kts 297°
2026-05-05 17:53 26.01148 -79.85229 36054 ft 392 kts 297°
2026-05-05 17:54 26.03352 -79.90769 36052 ft 392 kts 297°
2026-05-05 17:54 26.05553 -79.96313 36049 ft 392 kts 297°
2026-05-05 17:54 26.06663 -79.99106 35532 ft 400 kts 297°
2026-05-05 17:55 26.07785 -80.01933 34869 ft 400 kts 297°
2026-05-05 17:55 26.08907 -80.04766 34049 ft 401 kts 297°
2026-05-05 17:55 26.10035 -80.07618 33056 ft 404 kts 297°
2026-05-05 17:55 26.11170 -80.10486 32262 ft 404 kts 296°
2026-05-05 17:56 26.12290 -80.13327 31585 ft 400 kts 296°
2026-05-05 17:56 26.13404 -80.16153 30951 ft 396 kts 296°
2026-05-05 17:56 26.14827 -80.18742 30321 ft 391 kts 310°
2026-05-05 17:56 26.16732 -80.20861 29976 ft 383 kts 319°
2026-05-05 17:57 26.18974 -80.22459 29666 ft 387 kts 331°
2026-05-05 17:57 26.21439 -80.23759 29466 ft 398 kts 332°
2026-05-05 17:57 26.23982 -80.25057 29212 ft 403 kts 332°
2026-05-05 17:57 26.26532 -80.26348 28973 ft 401 kts 332°
2026-05-05 17:58 26.29053 -80.27632 28744 ft 397 kts 332°
2026-05-05 17:58 26.31550 -80.28915 28507 ft 394 kts 332°
2026-05-05 17:58 26.34026 -80.30196 28292 ft 391 kts 332°
2026-05-05 17:58 26.36486 -80.31476 28067 ft 389 kts 331°
2026-05-05 17:59 26.38935 -80.32753 27844 ft 387 kts 331°
2026-05-05 17:59 26.41344 -80.34011 27633 ft 386 kts 331°
2026-05-05 17:59 26.43774 -80.35281 27411 ft 386 kts 331°
2026-05-05 17:59 26.46208 -80.36554 27181 ft 386 kts 331°
2026-05-05 18:00 26.48636 -80.37824 26975 ft 386 kts 331°
2026-05-05 18:00 26.51068 -80.39097 26750 ft 386 kts 331°
2026-05-05 18:00 26.53498 -80.40369 26525 ft 386 kts 331°
2026-05-05 18:00 26.55931 -80.41642 26315 ft 386 kts 331°
2026-05-05 18:01 26.58364 -80.42916 26091 ft 386 kts 331°
2026-05-05 18:01 26.60793 -80.44189 25870 ft 385 kts 331°
2026-05-05 18:01 26.63235 -80.45421 25645 ft 385 kts 333°
2026-05-05 18:01 26.65736 -80.46508 25427 ft 385 kts 335°
2026-05-05 18:02 26.68256 -80.47526 25204 ft 384 kts 336°
2026-05-05 18:02 26.70769 -80.48525 25000 ft 383 kts 336°
2026-05-05 18:02 26.73272 -80.49525 24776 ft 381 kts 335°
2026-05-05 18:02 26.75762 -80.50532 24548 ft 380 kts 335°
2026-05-05 18:03 26.78244 -80.51546 24331 ft 379 kts 335°
2026-05-05 18:03 26.80718 -80.52564 24112 ft 378 kts 335°
2026-05-05 18:03 26.83156 -80.53572 23880 ft 377 kts 335°
2026-05-05 18:03 26.85611 -80.54589 23668 ft 376 kts 335°
2026-05-05 18:04 26.88066 -80.55607 23433 ft 375 kts 335°
2026-05-05 18:04 26.90381 -80.56567 23211 ft 374 kts 335°
2026-05-05 18:04 26.92813 -80.57576 22986 ft 372 kts 335°
2026-05-05 18:04 26.95237 -80.58581 22776 ft 371 kts 335°
2026-05-05 18:05 26.97657 -80.59585 22558 ft 370 kts 335°
2026-05-05 18:05 27.00067 -80.60586 22345 ft 369 kts 335°
2026-05-05 18:05 27.02472 -80.61586 22124 ft 368 kts 335°
2026-05-05 18:05 27.04870 -80.62584 21914 ft 367 kts 335°
2026-05-05 18:06 27.07262 -80.63580 21710 ft 366 kts 335°
2026-05-05 18:06 27.08066 -80.63914 21637 ft 366 kts 335°
2026-05-05 18:06 27.12023 -80.65561 21287 ft 364 kts 335°
2026-05-05 18:06 27.14396 -80.66553 21082 ft 363 kts 335°
2026-05-05 18:07 27.16762 -80.67545 20871 ft 363 kts 335°
2026-05-05 18:07 27.19124 -80.68536 20664 ft 362 kts 335°
2026-05-05 18:07 27.21486 -80.69527 20452 ft 361 kts 335°
2026-05-05 18:07 27.23837 -80.70514 20249 ft 360 kts 335°
2026-05-05 18:08 27.26180 -80.71498 20045 ft 359 kts 335°
2026-05-05 18:08 27.28518 -80.72480 19837 ft 358 kts 335°
2026-05-05 18:08 27.30856 -80.73462 19635 ft 358 kts 335°
2026-05-05 18:08 27.33151 -80.74427 19426 ft 357 kts 335°
2026-05-05 18:09 27.35474 -80.75403 19218 ft 356 kts 336°
2026-05-05 18:09 27.37776 -80.76373 18923 ft 351 kts 335°
2026-05-05 18:09 27.40049 -80.77350 18430 ft 349 kts 335°
2026-05-05 18:09 27.42304 -80.78328 17884 ft 345 kts 335°
2026-05-05 18:10 27.44524 -80.79292 17404 ft 340 kts 335°
2026-05-05 18:10 27.46721 -80.80247 16953 ft 338 kts 335°
2026-05-05 18:10 27.48916 -80.81201 16501 ft 338 kts 335°
2026-05-05 18:10 27.51112 -80.82153 16060 ft 337 kts 335°
2026-05-05 18:11 27.53304 -80.83103 15623 ft 337 kts 335°
2026-05-05 18:11 27.55491 -80.84051 15179 ft 337 kts 335°
2026-05-05 18:11 27.57661 -80.85040 14818 ft 335 kts 333°
2026-05-05 18:11 27.59773 -80.86120 14481 ft 331 kts 332°
2026-05-05 18:12 27.61849 -80.87223 14170 ft 329 kts 331°
2026-05-05 18:12 27.63906 -80.88321 13842 ft 327 kts 331°
2026-05-05 18:12 27.65936 -80.89402 13495 ft 326 kts 331°
2026-05-05 18:12 27.67988 -80.90489 13169 ft 327 kts 332°
2026-05-05 18:13 27.70052 -80.91577 12851 ft 329 kts 332°
2026-05-05 18:13 27.72131 -80.92672 12522 ft 331 kts 332°
2026-05-05 18:13 27.74217 -80.93768 12200 ft 331 kts 332°
2026-05-05 18:13 27.76305 -80.94865 11881 ft 331 kts 332°
2026-05-05 18:14 27.78396 -80.95964 11567 ft 332 kts 332°
2026-05-05 18:14 27.80489 -80.97063 11248 ft 332 kts 332°
2026-05-05 18:14 27.82564 -80.98153 10917 ft 323 kts 332°
2026-05-05 18:14 27.84554 -80.99196 10592 ft 306 kts 332°
2026-05-05 18:15 27.86434 -81.00184 10305 ft 291 kts 332°
2026-05-05 18:15 27.87627 -81.00811 10120 ft 281 kts 332°
2026-05-05 18:15 27.89382 -81.01735 9853 ft 276 kts 332°
2026-05-05 18:15 27.91111 -81.02646 9559 ft 273 kts 332°
2026-05-05 18:16 27.92833 -81.03554 9296 ft 274 kts 332°
2026-05-05 18:16 27.94586 -81.04415 9037 ft 275 kts 336°
2026-05-05 18:16 27.96378 -81.05175 8771 ft 275 kts 337°
2026-05-05 18:16 27.98184 -81.05919 8493 ft 276 kts 338°
2026-05-05 18:17 27.99986 -81.06663 8224 ft 275 kts 338°
2026-05-05 18:17 28.01777 -81.07411 7966 ft 274 kts 338°
2026-05-05 18:17 28.03558 -81.08161 7703 ft 273 kts 338°
2026-05-05 18:17 28.05335 -81.08912 7431 ft 272 kts 338°
2026-05-05 18:18 28.07102 -81.09661 7172 ft 270 kts 338°
2026-05-05 18:18 28.08859 -81.10403 6919 ft 270 kts 338°
2026-05-05 18:18 28.10589 -81.11126 6663 ft 265 kts 338°
2026-05-05 18:18 28.12288 -81.11835 6385 ft 255 kts 338°
2026-05-05 18:19 28.13922 -81.12518 6127 ft 246 kts 339°
2026-05-05 18:19 28.15490 -81.13218 5849 ft 239 kts 329°
2026-05-05 18:19 28.16657 -81.14515 5613 ft 234 kts 306°
2026-05-05 18:19 28.17676 -81.15944 5334 ft 234 kts 310°
2026-05-05 18:20 28.18746 -81.17326 5087 ft 232 kts 311°
2026-05-05 18:20 28.19810 -81.18699 4827 ft 231 kts 311°
2026-05-05 18:20 28.20864 -81.20077 4546 ft 232 kts 311°
2026-05-05 18:20 28.21915 -81.21462 4262 ft 231 kts 311°
2026-05-05 18:21 28.22909 -81.22780 4025 ft 230 kts 311°
2026-05-05 18:21 28.23938 -81.24149 3780 ft 227 kts 311°
2026-05-05 18:21 28.24948 -81.25495 3511 ft 221 kts 311°
2026-05-05 18:21 28.25930 -81.26796 3250 ft 213 kts 313°
2026-05-05 18:22 28.27144 -81.27635 2953 ft 203 kts 348°
2026-05-05 18:22 28.28486 -81.27888 2707 ft 188 kts 353°
2026-05-05 18:22 28.29740 -81.28057 2432 ft 175 kts 356°
2026-05-05 18:22 28.30913 -81.28114 2209 ft 164 kts
2026-05-05 18:23 28.32042 -81.28131 2011 ft 163 kts
2026-05-05 18:23 28.33166 -81.28144 1808 ft 164 kts 359°
2026-05-05 18:23 28.34283 -81.28159 1607 ft 155 kts
2026-05-05 18:23 28.35321 -81.28165 1378 ft 143 kts
2026-05-05 18:24 28.36309 -81.28175 1208 ft 142 kts
2026-05-05 18:24 28.37302 -81.28185 1024 ft 144 kts
2026-05-05 18:24 28.38316 -81.28197 833 ft 147 kts
2026-05-05 18:24 28.39333 -81.28207 621 ft 145 kts
2026-05-05 18:25 28.40322 -81.28217 420 ft 140 kts
2026-05-05 18:25 28.40975 -81.28223 305 ft 142 kts
2026-05-05 18:25 28.42281 -81.28236 98 ft 131 kts 359°
2026-05-05 18:25 28.43005 -81.28244 98 ft 62 kts 359°
2026-05-05 18:26 28.43398 -81.28250 96 ft 34 kts 353°
2026-05-05 18:26 28.43525 -81.28318 96 ft 13 kts 309°
2026-05-05 18:26 28.43594 -81.28373 94 ft 13 kts 348°
2026-05-05 18:26 28.43694 -81.28375 96 ft 16 kts 359°
2026-05-05 18:27 28.43825 -81.28377 96 ft 20 kts 354°
2026-05-05 18:27 28.43875 -81.28497 97 ft 17 kts 270°
2026-05-05 18:27 28.43874 -81.28641 100 ft 21 kts 269°
2026-05-05 18:27 28.43872 -81.28804 107 ft 20 kts 270°
2026-05-05 18:28 28.43870 -81.29119 104 ft 21 kts 269°
2026-05-05 18:28 28.43850 -81.29253 96 ft 15 kts 221°
2026-05-05 18:28 28.43754 -81.29263 96 ft 15 kts 179°
2026-05-05 18:29 28.43636 -81.29262 99 ft 18 kts 179°
2026-05-05 18:29 28.43552 -81.29327 96 ft 18 kts 268°
2026-05-05 18:29 28.43551 -81.29476 96 ft 19 kts 270°
2026-05-05 18:29 28.43551 -81.29619 95 ft 19 kts 270°
2026-05-05 18:30 28.43550 -81.29778 95 ft 20 kts 269°
2026-05-05 18:30 28.43525 -81.29885 94 ft 12 kts 208°
2026-05-05 18:30 28.43439 -81.29887 96 ft 14 kts 179°
2026-05-05 18:30 28.43333 -81.29891 94 ft 16 kts 205°
2026-05-05 18:31 28.43286 -81.29996 94 ft 15 kts 250°
2026-05-05 18:31 28.43295 -81.30116 96 ft 16 kts 297°
2026-05-05 18:31 28.43361 -81.30202 94 ft 12 kts 349°
2026-05-05 18:31 28.43425 -81.30162 94 ft 10 kts 35°
2026-05-05 18:32 28.43444 -81.30147 95 ft 0 kts 35°